TimeEDT,TemperatureF,Dew PointF,Humidity,Sea Level PressureIn,VisibilityMPH,Wind Direction,Wind SpeedMPH,Gust SpeedMPH,PrecipitationIn,Events,Conditions,WindDirDegrees,DateUTC
12:15 AM,46.4,39.2,76,30.23,10.0,Calm,Calm,-,N/A,,Clear,0,2013-05-27 04:15:00
12:35 AM,44.6,37.4,76,30.23,10.0,Calm,Calm,-,N/A,,Clear,0,2013-05-27 04:35:00
12:55 AM,44.6,39.2,81,30.24,10.0,Calm,Calm,-,N/A,,Clear,0,2013-05-27 04:55:00
1:15 AM,42.8,37.4,81,30.24,10.0,Calm,Calm,-,N/A,,Clear,0,2013-05-27 05:15:00
1:35 AM,41.0,37.4,87,30.24,10.0,SW,3.5,-,N/A,,Clear,230,2013-05-27 05:35:00
1:55 AM,41.0,39.2,93,30.24,10.0,Calm,Calm,-,N/A,,Clear,0,2013-05-27 05:55:00
2:15 AM,41.0,37.4,87,30.24,10.0,Calm,Calm,-,N/A,,Clear,0,2013-05-27 06:15:00
2:35 AM,41.0,37.4,87,30.25,10.0,Calm,Calm,-,N/A,,Clear,0,2013-05-27 06:35:00
2:55 AM,39.2,37.4,93,30.25,10.0,Calm,Calm,-,N/A,,Clear,0,2013-05-27 06:55:00
3:15 AM,39.2,37.4,93,30.25,10.0,Calm,Calm,-,N/A,,Clear,0,2013-05-27 07:15:00
3:35 AM,39.2,37.4,93,30.25,10.0,Calm,Calm,-,N/A,,Clear,0,2013-05-27 07:35:00
3:55 AM,39.2,37.4,93,30.25,10.0,Calm,Calm,-,N/A,,Clear,0,2013-05-27 07:55:00
4:15 AM,39.2,37.4,93,30.25,10.0,Calm,Calm,-,N/A,,Clear,0,2013-05-27 08:15:00
4:35 AM,37.4,37.4,100,30.25,10.0,Calm,Calm,-,N/A,,Clear,0,2013-05-27 08:35:00
4:55 AM,37.4,37.4,100,30.25,10.0,Calm,Calm,-,N/A,,Clear,0,2013-05-27 08:55:00
5:15 AM,37.4,35.6,93,30.26,10.0,Calm,Calm,-,N/A,,Clear,0,2013-05-27 09:15:00
5:35 AM,37.4,35.6,93,30.26,10.0,Calm,Calm,-,N/A,,Clear,0,2013-05-27 09:35:00
5:55 AM,37.4,35.6,93,30.26,10.0,Calm,Calm,-,N/A,,Clear,0,2013-05-27 09:55:00
6:15 AM,37.4,35.6,93,30.27,10.0,Calm,Calm,-,N/A,,Clear,0,2013-05-27 10:15:00
6:35 AM,39.2,37.4,93,30.26,10.0,Calm,Calm,-,N/A,,Clear,0,2013-05-27 10:35:00
6:55 AM,41.0,37.4,87,30.27,10.0,Calm,Calm,-,N/A,,Clear,0,2013-05-27 10:55:00
7:15 AM,44.6,39.2,81,30.27,10.0,Calm,Calm,-,N/A,,Clear,0,2013-05-27 11:15:00
7:35 AM,48.2,39.2,71,30.27,10.0,Calm,Calm,-,N/A,,Clear,0,2013-05-27 11:35:00
7:55 AM,50.0,41.0,71,30.27,10.0,Calm,Calm,-,N/A,,Clear,0,2013-05-27 11:55:00
8:15 AM,55.4,41.0,58,30.28,10.0,Calm,Calm,-,N/A,,Clear,0,2013-05-27 12:15:00
8:35 AM,57.2,44.6,63,30.27,10.0,Calm,Calm,-,N/A,,Clear,0,2013-05-27 12:35:00
8:55 AM,60.8,35.6,39,30.27,10.0,West,5.8,-,N/A,,Clear,270,2013-05-27 12:55:00
9:15 AM,62.6,37.4,39,30.27,10.0,WSW,5.8,-,N/A,,Clear,240,2013-05-27 13:15:00
9:35 AM,62.6,35.6,37,30.27,10.0,WSW,6.9,-,N/A,,Clear,240,2013-05-27 13:35:00
9:55 AM,62.6,37.4,39,30.27,10.0,West,6.9,-,N/A,,Clear,280,2013-05-27 13:55:00
10:15 AM,62.6,37.4,39,30.27,10.0,West,5.8,-,N/A,,Clear,270,2013-05-27 14:15:00
10:35 AM,64.4,37.4,37,30.28,10.0,WSW,6.9,-,N/A,,Clear,240,2013-05-27 14:35:00
10:55 AM,64.4,37.4,37,30.27,10.0,West,6.9,-,N/A,,Clear,260,2013-05-27 14:55:00
11:15 AM,64.4,37.4,37,30.27,10.0,SSW,8.1,-,N/A,,Clear,210,2013-05-27 15:15:00
11:35 AM,64.4,35.6,34,30.26,10.0,West,5.8,-,N/A,,Clear,270,2013-05-27 15:35:00
11:55 AM,66.2,37.4,35,30.26,10.0,SW,5.8,-,N/A,,Clear,230,2013-05-27 15:55:00
12:15 PM,66.2,37.4,35,30.26,10.0,Calm,Calm,-,N/A,,Clear,0,2013-05-27 16:15:00
12:35 PM,68.0,37.4,33,30.25,10.0,South,9.2,-,N/A,,Clear,190,2013-05-27 16:35:00
12:55 PM,68.0,37.4,33,30.24,10.0,SW,8.1,-,N/A,,Clear,230,2013-05-27 16:55:00
1:15 PM,68.0,35.6,30,30.23,10.0,West,5.8,-,N/A,,Partly Cloudy,280,2013-05-27 17:15:00
1:35 PM,68.0,37.4,33,30.23,10.0,South,9.2,-,N/A,,Clear,190,2013-05-27 17:35:00
1:55 PM,68.0,37.4,33,30.22,10.0,SSW,8.1,-,N/A,,Clear,200,2013-05-27 17:55:00
2:00 PM,68.0,37.4,33,30.21,10.0,SSW,9.2,-,N/A,,Clear,210,2013-05-27 18:00:00
4:25 PM,-9999,-9999,N/A,-9999,-9999.0,North,-9999.0,-,N/A,,Unknown,0,2013-05-27 20:25:00
4:30 PM,69.8,35.6,28,30.18,-9999.0,SW,4.6,-,N/A,,Unknown,230,2013-05-27 20:30:00
4:50 PM,69.8,39.2,33,30.17,10.0,SSW,6.9,-,N/A,,Clear,200,2013-05-27 20:50:00
5:10 PM,69.8,39.2,33,30.17,10.0,SW,6.9,-,N/A,,Clear,230,2013-05-27 21:10:00
5:30 PM,69.8,39.2,33,30.18,10.0,SW,4.6,-,N/A,,Clear,220,2013-05-27 21:30:00
5:50 PM,69.8,37.4,31,30.17,10.0,SW,5.8,-,N/A,,Clear,220,2013-05-27 21:50:00
6:10 PM,68.0,37.4,33,30.17,10.0,SSW,6.9,-,N/A,,Clear,210,2013-05-27 22:10:00
6:30 PM,68.0,39.2,35,30.17,10.0,SSW,5.8,-,N/A,,Clear,210,2013-05-27 22:30:00
6:50 PM,68.0,39.2,35,30.17,10.0,Calm,Calm,-,N/A,,Clear,0,2013-05-27 22:50:00
7:10 PM,68.0,41.0,37,30.17,10.0,SSW,3.5,-,N/A,,Clear,200,2013-05-27 23:10:00
7:30 PM,66.2,39.2,37,30.17,10.0,SSW,4.6,-,N/A,,Clear,200,2013-05-27 23:30:00
7:50 PM,66.2,39.2,37,30.17,10.0,SSW,4.6,-,N/A,,Clear,200,2013-05-27 23:50:00
8:10 PM,64.4,41.0,42,30.18,10.0,Calm,Calm,-,N/A,,Clear,0,2013-05-28 00:10:00
8:30 PM,60.8,46.4,59,30.17,10.0,Calm,Calm,-,N/A,,Clear,0,2013-05-28 00:30:00
8:50 PM,59.0,44.6,59,30.17,10.0,Calm,Calm,-,N/A,,Clear,0,2013-05-28 00:50:00
9:10 PM,59.0,44.6,59,30.18,10.0,Calm,Calm,-,N/A,,Clear,0,2013-05-28 01:10:00
9:30 PM,57.2,44.6,63,30.18,10.0,Calm,Calm,-,N/A,,Clear,0,2013-05-28 01:30:00
9:50 PM,57.2,44.6,63,30.19,10.0,SSW,3.5,-,N/A,,Clear,210,2013-05-28 01:50:00
10:10 PM,55.4,46.4,72,30.19,10.0,Calm,Calm,-,N/A,,Clear,0,2013-05-28 02:10:00
10:30 PM,53.6,46.4,77,30.20,10.0,Calm,Calm,-,N/A,,Clear,0,2013-05-28 02:30:00
10:50 PM,53.6,46.4,77,30.20,10.0,Calm,Calm,-,N/A,,Clear,0,2013-05-28 02:50:00
11:10 PM,53.6,46.4,77,30.20,10.0,Calm,Calm,-,N/A,,Clear,0,2013-05-28 03:10:00
11:30 PM,51.8,46.4,82,30.20,10.0,Calm,Calm,-,N/A,,Clear,0,2013-05-28 03:30:00
11:50 PM,51.8,46.4,82,30.21,10.0,Calm,Calm,-,N/A,,Clear,0,2013-05-28 03:50:00